Temp
-17 -17 -17 -17 -17 -16 -16 -15 -15 -15 -14 -14 -14 -13 -13 -13 -13 -13 -13 -13 -13 -13 -13 -13 -13 -13 -13 -13 -13 -13 -13 -13 -13 -13 -13 -13 -13 -13 -12 -13 -13 -13 -13
-17 -17 -17 -17 -17 -16 -16 -15 -15 -15 -14 -14 -14 -14 -13 -13 -13 -13 -13 -13 -13 -13 -13 -13 -13 -13 -13 -13 -13 -13 -13 -13 -13 -13 -13 -13 -13 -13 -13 -13 -13 -13 -13
-17 -17 -17 -17 -17 -17 -16 -16 -16 -15 -15 -14 -14 -14 -14 -13 -13 -13 -13 -13 -13 -13 -13 -13 -13 -13 -13 -13 -14 -14 -14 -14 -14 -13 -13 -13 -13 -13 -13 -13 -13 -13 -13
-17 -17 -17 -17 -17 -16 -16 -16 -16 -15 -15 -15 -15 -14 -14 -14 -14 -13 -13 -13 -13 -13 -14 -14 -14 -14 -14 -14 -14 -14 -14 -14 -14 -14 -14 -14 -14 -13 -13 -13 -13 -14 -13
-17 -18 -18 -17 -17 -16 -16 -16 -16 -16 -15 -15 -15 -15 -14 -14 -14 -14 -14 -14 -14 -14 -14 -14 -14 -14 -14 -14 -14 -14 -14 -14 -14 -14 -14 -14 -14 -14 -14 -13 -13 -14 -13
-17 -18 -17 -17 -17 -17 -16 -16 -16 -16 -16 -15 -15 -15 -15 -14 -14 -14 -14 -14 -14 -14 -14 -14 -15 -15 -15 -15 -15 -15 -15 -15 -15 -15 -14 -14 -14 -14 -14 -14 -14 -14 -13
-18 -17 -17 -17 -17 -17 -17 -16 -16 -16 -16 -16 -15 -15 -15 -15 -15 -15 -15 -15 -15 -15 -15 -15 -15 -15 -15 -15 -15 -15 -15 -15 -15 -15 -15 -14 -14 -14 -14 -14 -14 -15 -15
-17 -17 -17 -17 -17 -17 -17 -16 -16 -16 -16 -16 -16 -16 -16 -15 -15 -15 -15 -15 -15 -15 -15 -15 -15 -15 -15 -15 -15 -15 -15 -15 -15 -15 -15 -15 -15 -14 -14 -14 -14 -15 -15
-17 -17 -17 -17 -17 -17 -17 -17 -17 -17 -17 -16 -16 -16 -16 -16 -16 -16 -16 -16 -16 -16 -16 -16 -16 -16 -16 -16 -16 -16 -15 -15 -15 -15 -15 -15 -15 -15 -15 -15 -15 -15 -15
-18 -18 -17 -17 -17 -17 -17 -17 -17 -17 -17 -17 -17 -17 -17 -16 -16 -16 -16 -16 -16 -16 -16 -16 -16 -16 -16 -16 -16 -16 -16 -16 -16 -16 -16 -16 -15 -15 -15 -15 -15 -15 -15
-18 -18 -18 -18 -17 -17 -17 -17 -17 -17 -17 -17 -17 -17 -17 -17 -17 -17 -17 -17 -17 -17 -17 -16 -16 -16 -16 -16 -16 -16 -16 -16 -16 -16 -16 -16 -16 -16 -16 -16 -16 -15 -15
-18 -18 -18 -18 -18 -18 -18 -18 -18 -18 -18 -17 -17 -17 -17 -17 -17 -17 -17 -17 -17 -17 -17 -17 -17 -17 -17 -17 -17 -17 -17 -17 -17 -16 -16 -16 -16 -16 -16 -16 -16 -16 -16
-19 -18 -18 -18 -18 -18 -18 -18 -18 -18 -18 -18 -18 -17 -17 -17 -17 -17 -17 -17 -17 -17 -17 -17 -17 -17 -17 -17 -17 -17 -17 -17 -17 -17 -17 -17 -17 -17 -17 -17 -17 -17 -16
-19 -19 -19 -19 -18 -18 -18 -18 -18 -18 -18 -18 -18 -18 -18 -18 -18 -18 -18 -18 -18 -18 -18 -18 -18 -18 -18 -18 -18 -18 -18 -18 -18 -18 -18 -18 -18 -18 -18 -17 -17 -17 -17
-19 -19 -19 -19 -19 -19 -19 -19 -18 -18 -18 -18 -18 -18 -18 -18 -18 -18 -18 -18 -18 -18 -18 -18 -18 -19 -19 -18 -19 -19 -19 -19 -19 -19 -18 -18 -18 -18 -18 -18 -18 -18 -18
-19 -19 -19 -19 -19 -19 -19 -19 -19 -19 -18 -18 -18 -18 -18 -18 -18 -19 -19 -19 -19 -19 -19 -19 -19 -19 -19 -19 -19 -19 -19 -19 -19 -19 -19 -19 -19 -19 -19 -19 -19 -19 -19
-19 -19 -19 -19 -19 -19 -19 -19 -19 -19 -19 -19 -19 -19 -19 -19 -19 -20 -20 -20 -20 -20 -20 -20 -20 -20 -20 -20 -20 -20 -20 -20 -20 -20 -20 -20 -20 -20 -20 -20 -20 -20 -20
-19 -19 -19 -19 -19 -19 -19 -19 -19 -19 -19 -19 -20 -20 -20 -20 -20 -20 -20 -20 -20 -20 -20 -20 -21 -21 -21 -21 -21 -21 -21 -21 -21 -21 -21 -21 -21 -21 -21 -21 -21 -21 -21
-20 -20 -20 -20 -20 -20 -20 -20 -20 -20 -20 -20 -20 -20 -20 -20 -21 -21 -20 -21 -21 -21 -21 -22 -22 -22 -22 -22 -22 -22 -21 -21 -21 -21 -21 -21 -21 -22 -22 -21 -21 -21 -21
-20 -20 -20 -20 -20 -20 -20 -20 -20 -21 -21 -21 -21 -21 -21 -21 -21 -21 -22 -22 -22 -22 -23 -23 -23 -22 -22 -22 -22 -22 -22 -22 -22 -22 -22 -22 -22 -22 -23 -23 -22 -22 -23
-20 -20 -20 -20 -20 -21 -21 -21 -21 -21 -21 -21 -21 -22 -22 -22 -23 -23 -23 -23 -23 -23 -23 -23 -23 -22 -22 -22 -23 -23 -22 -22 -22 -23 -23 -23 -23 -24 -24 -24 -24 -24 -25
-21 -21 -21 -21 -21 -21 -21 -21 -21 -22 -22 -23 -23 -23 -23 -24 -24 -24 -24 -23 -23 -23 -23 -23 -23 -23 -23 -23 -23 -24 -24 -24 -24 -24 -24 -25 -25 -26 -26 -26 -27 -27 -27
-21 -21 -21 -21 -22 -22 -22 -22 -23 -24 -24 -24 -24 -24 -24 -24 -24 -24 -23 -23 -23 -23 -23 -23 -24 -24 -24 -24 -24 -25 -25 -26 -26 -26 -26 -26 -27 -27 -27 -28 -28 -28 -29
-22 -22 -22 -22 -23 -23 -24 -25 -25 -25 -25 -25 -24 -24 -24 -24 -24 -24 -24 -24 -24 -24 -24 -25 -25 -25 -25 -26 -26 -26 -27 -27 -28 -28 -28 -29 -29 -29 -29 -30 -30 -31 -32
-23 -23 -24 -25 -25 -25 -25 -25 -25 -25 -25 -24 -24 -24 -24 -24 -25 -25 -25 -25 -25 -26 -26 -26 -26 -26 -26 -27 -27 -28 -28 -28 -29 -30 -31 -31 -31 -32 -32 -33 -34 -35 -35
-25 -26 -26 -26 -26 -26 -25 -25 -25 -25 -25 -25 -25 -25 -25 -26 -26 -26 -27 -27 -27 -27 -27 -27 -27 -27 -28 -28 -29 -30 -31 -32 -33 -33 -34 -34 -35 -35 -36 -36 -36 -37 -38
Height
5729 5733 5736 5738 5740 5742 5745 5748 5751 5754 5757 5760 5764 5767 5770 5774 5777 5779 5782 5784 5787 5788 5790 5791 5793 5794 5795 5796 5797 5798 5800 5801 5801 5802 5804 5804 5806 5807 5807 5809 5809 5810 5811
5722 5726 5729 5732 5733 5735 5738 5741 5744 5748 5750 5754 5757 5760 5763 5767 5770 5773 5775 5778 5780 5782 5783 5785 5787 5788 5789 5790 5791 5793 5794 5794 5795 5796 5797 5799 5799 5799 5801 5802 5803 5803 5804
5714 5718 5721 5724 5726 5728 5731 5734 5737 5740 5743 5746 5750 5753 5756 5760 5764 5766 5768 5771 5773 5775 5776 5778 5779 5781 5782 5783 5785 5786 5788 5789 5789 5789 5790 5791 5793 5793 5795 5794 5796 5795 5796
5704 5708 5712 5716 5718 5721 5724 5726 5730 5732 5735 5739 5742 5746 5749 5752 5756 5759 5761 5763 5765 5767 5769 5771 5772 5773 5775 5776 5777 5779 5780 5781 5782 5783 5783 5784 5785 5785 5787 5787 5789 5787 5788
5695 5699 5704 5707 5711 5713 5717 5719 5722 5725 5728 5731 5735 5738 5741 5744 5747 5750 5752 5755 5757 5759 5761 5762 5764 5766 5767 5768 5769 5770 5771 5773 5774 5775 5775 5776 5776 5776 5777 5777 5780 5778 5778
5687 5692 5696 5700 5703 5706 5709 5711 5715 5717 5720 5723 5726 5730 5733 5736 5739 5741 5743 5746 5749 5751 5753 5754 5756 5757 5758 5759 5760 5761 5762 5763 5765 5765 5765 5766 5767 5767 5768 5768 5768 5768 5767
5680 5684 5688 5692 5695 5698 5701 5703 5707 5710 5713 5715 5718 5721 5724 5727 5729 5732 5735 5737 5739 5741 5743 5745 5746 5748 5749 5750 5751 5752 5753 5753 5754 5755 5755 5756 5756 5756 5757 5758 5759 5758 5757
5671 5675 5679 5683 5686 5689 5692 5695 5698 5701 5704 5707 5709 5712 5715 5717 5720 5723 5725 5727 5729 5731 5733 5735 5736 5737 5738 5739 5740 5741 5741 5741 5742 5742 5743 5743 5744 5744 5745 5745 5746 5747 5747
5661 5665 5669 5673 5677 5681 5684 5687 5689 5692 5695 5697 5700 5702 5705 5707 5710 5712 5715 5717 5719 5720 5722 5723 5725 5726 5727 5727 5728 5728 5728 5729 5729 5729 5729 5730 5730 5730 5730 5730 5731 5731 5733
5651 5656 5660 5663 5667 5671 5674 5677 5680 5682 5685 5688 5690 5692 5694 5697 5699 5701 5703 5705 5707 5709 5710 5711 5712 5713 5714 5714 5715 5714 5715 5715 5715 5715 5715 5715 5714 5714 5714 5713 5713 5714 5714
5643 5647 5651 5654 5658 5661 5664 5667 5670 5672 5675 5678 5680 5682 5685 5686 5688 5690 5692 5693 5695 5696 5697 5698 5699 5699 5700 5700 5701 5700 5700 5700 5700 5700 5699 5699 5698 5697 5697 5696 5695 5695 5695
5635 5639 5642 5646 5649 5652 5655 5658 5661 5663 5665 5668 5670 5672 5674 5676 5677 5679 5680 5681 5682 5683 5684 5685 5685 5685 5686 5686 5686 5685 5685 5684 5683 5683 5682 5681 5680 5679 5678 5677 5675 5675 5674
5628 5631 5634 5637 5640 5643 5646 5649 5651 5653 5655 5657 5659 5661 5663 5665 5666 5667 5668 5668 5669 5670 5670 5670 5670 5670 5670 5670 5669 5668 5667 5666 5665 5664 5663 5662 5660 5658 5657 5655 5654 5653 5652
5618 5622 5625 5628 5631 5634 5637 5639 5641 5643 5645 5647 5649 5650 5651 5652 5653 5654 5655 5655 5655 5655 5655 5655 5655 5654 5653 5653 5652 5650 5649 5647 5645 5644 5642 5641 5639 5637 5635 5633 5631 5630 5628
5610 5613 5616 5619 5622 5624 5627 5629 5631 5633 5634 5635 5637 5638 5639 5640 5640 5640 5640 5640 5640 5639 5639 5639 5638 5637 5636 5635 5633 5631 5630 5628 5625 5623 5621 5619 5616 5613 5610 5608 5606 5604 5602
5600 5603 5606 5609 5611 5614 5616 5618 5619 5621 5622 5623 5624 5624 5625 5626 5626 5626 5626 5625 5625 5624 5623 5623 5621 5619 5617 5615 5613 5611 5610 5607 5604 5600 5597 5595 5591 5588 5585 5582 5579 5578 5576
5590 5593 5596 5599 5601 5603 5604 5606 5607 5608 5609 5610 5611 5612 5612 5612 5612 5612 5611 5611 5610 5608 5607 5605 5602 5600 5596 5594 5591 5588 5587 5583 5580 5576 5573 5570 5566 5562 5558 5554 5551 5550 5547
5579 5582 5585 5587 5589 5591 5592 5594 5595 5596 5597 5597 5598 5598 5599 5599 5598 5597 5596 5594 5593 5590 5588 5585 5582 5579 5575 5571 5567 5564 5562 5559 5555 5551 5547 5543 5538 5532 5528 5525 5522 5519 5516
5568 5571 5573 5575 5577 5579 5580 5582 5583 5584 5585 5585 5585 5585 5584 5583 5582 5581 5579 5577 5574 5571 5568 5564 5561 5558 5553 5547 5543 5538 5536 5533 5529 5524 5520 5514 5509 5501 5496 5493 5490 5486 5483
5557 5559 5561 5563 5565 5567 5569 5570 5571 5572 5572 5572 5571 5570 5570 5568 5566 5563 5561 5558 5555 5552 5548 5544 5539 5535 5531 5523 5517 5511 5508 5505 5499 5494 5489 5483 5477 5471 5463 5457 5454 5454 5448
5546 5549 5551 5553 5555 5557 5558 5559 5559 5559 5559 5558 5557 5555 5554 5552 5549 5546 5542 5539 5535 5531 5526 5522 5516 5511 5504 5498 5490 5481 5475 5471 5467 5462 5455 5448 5441 5435 5429 5423 5419 5417 5409
5536 5538 5540 5542 5544 5545 5546 5547 5547 5546 5545 5544 5543 5541 5539 5536 5532 5528 5523 5518 5514 5509 5503 5497 5491 5483 5475 5468 5461 5450 5440 5433 5428 5425 5419 5412 5405 5399 5394 5388 5384 5379 5371
5526 5528 5530 5531 5533 5534 5535 5535 5534 5534 5533 5532 5529 5526 5522 5518 5513 5508 5502 5496 5488 5482 5475 5468 5460 5453 5443 5436 5427 5417 5407 5399 5391 5387 5382 5377 5371 5365 5360 5355 5349 5344 5338
5516 5518 5520 5521 5522 5523 5524 5524 5524 5523 5520 5517 5513 5509 5504 5498 5492 5485 5478 5470 5462 5454 5446 5437 5429 5421 5412 5402 5393 5384 5374 5365 5357 5349 5343 5338 5333 5328 5324 5321 5316 5310 5305
5507 5509 5511 5512 5514 5515 5515 5513 5512 5509 5506 5502 5497 5491 5484 5477 5469 5461 5452 5443 5433 5424 5414 5405 5397 5388 5380 5368 5355 5346 5339 5331 5324 5314 5305 5301 5297 5294 5292 5287 5282 5277 5275
5499 5501 5504 5505 5506 5505 5504 5501 5498 5493 5488 5483 5477 5470 5462 5454 5445 5436 5427 5414 5405 5394 5383 5373 5363 5354 5345 5334 5323 5315 5307 5299 5291 5281 5275 5271 5268 5264 5262 5258 5255 5252 5248
Wind_Speed
42 37 35 33 32 32 32 33 35 34 35 34 34 34 34 34 34 32 31 30 30 28 26 25 24 24 23 23 23 24 24 25 25 25 25 26 26 27 28 30 30 30 30
44 42 38 37 35 34 34 33 35 35 34 35 35 35 36 36 35 34 33 33 32 30 29 28 28 27 26 26 26 26 26 26 27 28 29 28 28 29 30 32 33 33 33
48 45 42 40 38 36 36 35 36 35 35 36 36 37 37 37 37 36 35 35 34 33 32 32 31 30 29 29 28 28 27 28 29 30 31 30 30 33 31 32 32 32 33
50 48 44 41 39 37 38 37 38 37 37 37 37 38 38 38 39 38 37 37 37 36 36 35 34 33 32 32 31 31 31 31 32 33 34 34 34 35 35 36 33 36 36
53 49 45 41 40 38 38 38 38 39 38 38 39 39 39 40 40 40 39 39 39 39 38 37 36 35 35 35 35 35 35 35 36 36 37 37 38 38 38 39 38 40 40
52 49 46 43 40 40 40 39 39 40 40 40 40 40 40 41 41 41 41 41 41 41 40 39 39 39 39 39 39 39 40 40 40 41 42 42 42 43 42 42 43 44 45
50 49 47 45 43 42 41 42 41 41 41 41 41 41 42 41 42 42 43 43 43 43 42 42 42 42 43 43 43 44 45 45 46 46 46 47 47 47 47 47 47 48 49
46 47 47 45 45 44 43 43 43 42 42 42 42 42 42 43 43 43 44 45 45 46 46 46 46 47 47 48 48 49 49 50 50 51 51 51 52 52 52 53 52 52 52
45 46 46 45 44 43 42 43 43 43 43 43 44 44 44 45 45 46 47 47 48 49 50 50 51 51 52 52 53 53 54 55 55 55 56 56 56 57 57 57 57 58 57
39 42 42 43 42 42 42 43 44 44 45 45 45 45 46 47 48 48 49 50 51 52 53 54 54 55 56 56 57 58 58 58 58 59 59 60 61 61 62 63 63 64 64
36 37 38 39 41 41 42 43 44 44 45 46 46 46 47 48 49 50 51 52 53 54 55 55 56 57 58 59 59 60 60 61 62 62 63 64 65 66 67 68 69 70 71
34 36 38 39 40 42 43 44 44 43 44 44 46 46 47 48 49 50 51 52 53 55 55 56 57 58 59 60 61 62 63 64 65 67 68 69 70 71 72 73 74 76 77
30 33 35 37 38 40 42 42 42 43 44 44 45 46 47 48 49 51 52 53 54 56 57 59 60 61 62 63 65 66 67 68 69 71 72 74 75 76 77 78 79 80 81
35 37 38 38 39 41 43 44 44 45 46 47 48 48 49 50 52 53 54 56 57 58 59 61 62 64 65 67 68 69 70 72 73 74 75 77 79 80 82 83 85 86 87
31 37 40 41 42 42 43 44 45 46 47 48 48 49 51 53 54 56 57 58 59 61 62 63 64 65 67 68 70 71 73 76 78 80 81 83 85 86 87 88 90 91 92
33 32 33 35 37 39 43 46 48 49 47 48 48 49 51 53 55 57 58 58 58 60 62 65 67 68 71 73 75 77 79 81 82 83 85 86 88 90 91 92 93 94 95
38 37 38 41 42 40 40 43 45 46 48 50 52 53 54 52 51 53 55 58 61 64 67 69 71 73 75 77 78 81 81 83 84 86 88 89 91 93 94 96 98 99 100
37 37 37 37 39 41 44 45 46 47 48 46 45 47 50 53 55 58 60 62 64 67 69 71 72 74 77 79 82 84 85 87 88 90 92 94 96 98 100 101 103 104 106
44 45 45 45 44 43 41 42 42 44 46 47 49 52 55 57 60 62 63 66 67 69 71 73 75 77 80 83 86 88 90 92 94 96 97 99 102 105 107 108 109 110 111
41 43 42 41 44 43 43 45 45 46 49 52 55 58 60 61 62 63 66 67 69 71 74 76 79 82 85 88 91 93 95 97 99 101 103 105 107 109 111 113 114 114 115
38 40 40 39 39 40 43 47 50 53 57 58 57 57 58 59 62 64 67 70 73 76 79 82 85 88 91 93 97 100 103 104 105 107 109 111 112 113 114 115 115 115 115
41 40 41 43 46 49 51 53 54 53 51 51 52 54 57 61 65 68 72 76 79 81 84 87 90 93 97 99 102 105 108 110 111 111 111 111 111 111 110 110 110 110 110
41 44 46 47 49 50 50 48 45 45 47 50 54 58 63 67 70 74 77 80 83 87 90 93 96 99 102 104 105 107 108 109 110 110 110 110 110 109 109 109 109 108 107
43 44 46 46 44 41 37 39 42 45 51 55 60 64 68 71 74 78 82 85 89 92 94 96 97 99 100 102 104 105 106 107 108 108 109 107 107 107 106 104 102 99 96
40 37 34 31 31 33 38 42 47 52 56 60 63 66 70 75 79 82 85 87 89 91 93 95 97 99 100 102 104 105 105 104 102 101 101 99 99 96 93 91 90 89 87
27 27 28 30 34 38 44 48 51 54 58 62 67 71 74 76 77 79 82 86 89 92 94 95 97 98 99 98 96 92 90 86 83 84 83 81 79 77 77 76 76 75 75
Wind_Direction
234 236 237 239 241 242 239 235 236 236 233 234 235 233 232 234 236 238 241 244 246 246 246 249 253 253 254 257 258 259 259 259 259 258 257 258 256 255 256 257 257 257 258
234 237 236 243 248 245 241 238 234 235 236 236 235 235 235 236 236 238 240 244 246 247 248 251 254 258 259 258 258 257 258 258 259 260 260 257 257 256 257 257 258 258 260
235 238 240 244 246 244 239 240 239 238 239 237 236 236 237 238 238 239 242 245 247 248 249 252 255 257 258 258 258 258 257 258 260 261 262 261 260 260 258 259 261 262 262
235 237 240 241 241 241 240 238 240 240 241 241 239 238 238 239 240 242 243 245 247 249 251 253 256 256 257 257 258 258 259 259 260 261 263 263 263 263 262 263 262 264 262
236 240 239 238 239 240 241 242 241 241 241 242 242 241 240 241 242 244 245 247 248 250 252 254 255 256 258 259 260 260 259 259 260 260 261 263 264 264 265 265 263 263 264
235 238 239 240 242 242 241 242 242 243 243 242 242 242 242 243 244 246 248 249 250 251 253 254 255 256 257 258 259 260 260 260 260 261 261 262 262 263 263 264 266 267 267
241 242 242 242 242 243 243 243 242 243 244 244 243 243 244 244 244 246 248 250 252 252 253 254 255 257 258 259 260 261 262 262 263 263 263 263 263 263 263 262 262 263 265
242 242 244 243 242 243 242 243 243 244 245 245 245 245 245 246 247 247 248 250 251 252 254 255 257 258 259 260 261 263 264 265 265 266 266 266 265 265 265 264 264 263 263
239 240 242 243 243 243 244 244 244 244 245 245 245 245 247 247 248 248 249 250 252 253 255 256 257 259 260 262 263 264 265 266 267 267 267 268 268 268 267 267 266 266 265
239 240 241 241 241 241 241 242 243 244 246 246 247 247 247 248 249 250 251 252 253 254 255 257 259 260 262 264 265 266 267 268 268 269 269 269 270 270 269 269 269 268 267
239 238 241 241 239 240 241 242 243 244 245 247 249 250 251 252 252 253 254 255 256 257 258 259 261 262 264 265 266 267 268 269 270 270 271 271 271 271 271 271 271 271 270
234 237 239 241 241 240 241 243 244 245 247 249 251 253 255 256 257 258 259 260 261 262 264 265 265 266 267 268 269 270 270 270 271 271 271 271 271 271 271 271 271 270 270
234 235 237 238 239 241 243 245 247 249 250 252 253 255 257 258 260 261 262 263 264 265 266 267 267 268 269 270 270 270 270 271 271 272 272 273 273 273 273 273 273 272 272
228 230 232 236 239 242 244 247 249 251 253 255 257 258 259 260 261 262 263 264 265 266 267 267 268 268 269 270 270 271 271 272 273 273 273 274 274 275 274 274 274 274 274
239 236 237 238 240 244 246 248 250 251 253 256 258 259 260 261 261 262 264 265 266 267 268 270 271 271 272 272 273 273 274 274 275 276 276 276 276 276 276 276 276 276 276
244 242 245 241 243 246 249 250 251 253 254 256 255 256 258 261 263 266 268 269 270 271 271 271 271 272 272 273 274 274 275 275 275 275 276 276 276 276 276 276 276 276 276
250 247 245 241 251 251 254 255 256 255 256 258 260 261 264 267 267 268 268 269 270 270 271 272 273 274 274 274 274 275 275 275 276 276 277 277 277 277 277 277 277 277 277
248 249 249 250 251 251 252 254 253 254 256 259 262 265 267 268 269 270 271 273 274 274 274 274 275 274 275 275 276 276 277 277 277 278 278 278 278 278 278 278 278 278 278
246 249 252 250 248 246 249 253 256 258 258 261 266 268 269 270 272 273 274 276 276 275 275 275 276 277 277 278 278 278 278 278 279 279 279 279 279 279 279 279 279 279 279
246 245 244 246 247 248 249 253 256 259 263 269 268 268 270 271 273 274 274 274 275 276 277 277 278 278 279 280 281 281 281 280 279 279 279 279 279 278 279 279 279 279 279
243 244 246 247 247 249 253 257 258 257 260 264 266 267 270 272 273 275 276 278 279 279 281 282 282 282 282 282 282 282 281 281 280 281 281 281 281 280 280 280 280 280 279
244 246 248 249 250 247 248 251 255 259 263 267 270 272 274 275 277 279 281 282 283 283 283 282 282 283 283 283 283 284 284 283 283 282 282 281 281 281 281 281 281 280 280
241 242 241 241 244 249 252 255 261 267 271 274 276 277 279 282 283 284 284 284 285 285 285 286 286 286 286 285 285 284 284 283 283 283 282 282 281 280 280 280 280 280 279
234 236 240 244 248 256 264 269 271 274 277 279 281 283 284 285 286 287 287 288 288 288 288 287 287 287 286 286 285 285 285 284 284 283 282 282 281 280 280 279 279 278 278
235 240 249 256 263 268 272 275 277 280 282 283 284 286 288 289 289 290 290 291 290 290 289 289 289 289 288 288 287 286 285 285 284 283 282 281 281 280 279 279 278 278 277
240 249 257 263 269 272 276 279 283 285 287 289 291 291 292 293 294 294 294 294 293 293 292 292 291 290 289 288 288 287 287 286 285 284 284 284 282 280 280 279 278 277 276